Theta_e
296 292 293 292 292 295 293 294 289 293 294 303 308 308 310 312 313 313 313 314 314 314 316 318 320 321 321 320 320 319 316 313 308 306 304 303 303 303 303 303 303 303 303 302
292 296 292 290 292 293 297 297 296 299 299 309 311 311 311 311 311 310 311 312 313 314 315 315 316 318 318 317 314 310 307 303 303 302 303 302 302 301 300 299 299 299 299 300
287 296 295 286 291 292 297 299 299 293 300 307 306 306 307 308 309 308 308 309 310 310 310 309 309 307 305 304 304 303 302 302 302 302 301 300 299 298 296 295 295 296 296 297
288 291 282 292 301 298 299 302 302 305 306 306 303 302 301 299 299 298 300 300 301 301 301 302 302 302 303 302 301 301 300 301 301 300 298 297 296 294 294 293 293 293 294 295
285 286 292 297 301 300 298 300 305 305 305 304 302 301 297 299 299 297 297 297 297 299 298 298 298 299 300 300 300 301 299 299 299 299 296 295 293 293 292 292 293 297 298 298
289 285 282 295 303 308 305 296 309 308 304 303 304 297 296 298 298 297 297 298 298 297 297 297 298 299 298 298 299 298 298 298 298 297 295 294 292 292 292 295 297 296 293 295
289 286 291 300 304 308 292 293 307 308 307 304 301 301 299 299 298 297 297 299 300 298 296 296 297 297 296 296 296 298 297 296 294 292 292 292 291 291 290 288 288 288 288 289
291 287 284 305 304 298 301 307 308 307 307 301 300 299 298 299 298 297 297 296 297 296 295 296 296 295 293 293 295 295 294 293 292 289 291 291 289 288 287 286 286 286 285 286
293 293 303 305 305 307 307 307 308 307 303 301 299 298 299 298 297 297 296 294 293 291 291 292 293 293 291 292 293 292 289 288 288 289 289 289 288 287 286 285 284 284 284 284
297 300 302 307 310 309 310 306 307 306 304 302 300 299 299 297 296 296 294 292 291 290 288 288 290 290 290 290 291 289 287 287 287 288 287 288 288 288 285 285 285 285 286 283
299 302 304 307 307 312 310 307 306 305 304 303 301 300 299 298 297 295 293 292 291 289 288 288 290 290 291 292 292 289 288 288 289 289 289 289 291 288 288 288 289 287 287 286
298 304 302 302 309 314 307 306 305 303 303 303 301 298 299 297 295 294 292 291 289 288 288 288 290 290 291 292 290 288 289 290 288 289 288 288 286 286 291 290 290 290 290 288
303 308 309 309 310 314 308 305 305 304 303 298 296 296 295 293 293 294 292 290 288 288 288 288 289 289 290 289 288 286 285 285 285 286 285 285 287 288 286 288 291 291 290 289
305 309 306 308 307 311 308 306 304 299 297 296 296 296 295 294 294 292 290 289 288 287 287 287 288 288 288 288 286 285 284 290 282 284 284 284 285 287 288 286 286 287 289 288
302 308 306 307 304 302 300 298 296 294 295 294 295 293 293 291 290 289 289 289 288 286 286 287 286 286 287 287 286 285 285 285 285 284 283 285 283 283 283 284 285 283 284 284
300 305 303 300 298 298 297 295 293 293 293 293 292 292 291 290 289 288 287 286 283 282 285 286 285 285 287 286 285 284 286 288 288 284 284 283 283 282 281 281 281 281 281 280
300 297 297 296 295 295 294 294 295 293 293 291 290 291 290 288 286 285 285 285 284 284 286 285 281 285 288 287 285 285 285 285 284 284 283 283 282 281 281 280 280 279 280 282
300 299 298 297 295 295 295 295 294 293 292 292 292 291 289 286 284 284 284 284 284 284 285 282 283 284 286 287 285 284 285 284 285 284 284 283 281 281 281 280 280 279 279 281
297 296 296 296 296 295 295 294 294 294 294 293 292 289 288 286 285 284 284 283 282 278 276 284 286 287 285 287 286 285 285 285 284 283 284 283 281 280 280 279 279 279 279 280
297 297 297 297 297 296 295 296 295 294 294 293 291 289 287 286 286 285 284 281 280 278 281 284 283 283 283 285 287 285 285 285 284 283 282 280 280 279 279 280 280 279 279 280
297 297 297 297 296 297 296 296 294 293 293 293 291 289 288 286 286 284 282 281 282 286 284 285 280 277 282 283 285 285 285 284 282 281 281 279 279 279 278 278 279 279 279 279
297 296 296 296 296 294 294 294 294 293 292 291 290 288 286 284 285 284 284 282 285 284 280 277 277 281 280 284 285 284 284 283 281 281 280 279 278 278 278 278 278 279 278 278
295 295 294 293 292 292 294 294 293 293 292 292 290 288 286 285 285 283 282 285 280 282 278 278 282 282 283 285 285 284 283 282 280 280 278 278 278 278 277 276 277 278 278 278
294 294 293 293 293 292 291 292 293 293 293 293 291 289 287 285 283 281 284 283 282 280 279 280 283 284 284 283 283 282 281 280 279 278 278 279 277 277 276 276 277 278 278 278
294 294 293 293 292 291 291 291 292 291 291 290 290 289 287 286 284 281 281 281 283 282 280 282 284 284 283 282 281 280 279 278 277 276 275 275 275 281 281 281 280 276 279 279
293 292 292 292 292 292 291 291 290 290 290 288 288 288 286 285 286 284 282 283 281 281 278 279 280 281 281 280 280 280 279 279 278 275 281 281 281 281 281 281 281 280 280 281
293 292 291 291 292 291 291 291 290 289 290 289 287 287 288 288 286 285 283 281 279 277 277 277 276 279 279 279 279 278 278 278 278 276 281 281 280 280 280 280 281 281 280 280
Wind_Speed
4 8 6 8 7 11 5 7 5 2 4 10 12 12 14 16 18 19 16 19 17 14 14 13 16 13 15 14 13 13 13 13 11 11 10 10 9 7 7 7 6 6 5 4
5 5 11 7 10 7 9 4 5 5 9 10 7 14 15 17 21 20 18 18 18 17 15 16 14 13 12 10 10 12 15 14 12 11 11 9 8 8 8 7 6 6 6 6
5 6 2 3 11 8 10 7 8 5 8 12 9 14 12 16 18 18 16 16 16 15 13 12 12 12 14 14 13 14 13 13 11 11 11 10 7 7 7 6 6 7 6 5
4 5 2 6 5 5 7 9 14 14 15 13 14 11 12 9 15 18 16 13 13 11 13 14 12 13 14 13 14 14 11 11 10 10 9 8 8 7 6 4 3 1 3 4
2 3 6 4 8 3 8 1 7 16 20 19 20 16 13 8 12 14 16 11 9 11 15 15 15 13 14 14 13 15 11 10 9 10 8 6 7 5 2 2 3 3 3 5
3 3 2 5 3 6 8 6 7 12 16 22 12 8 6 8 15 11 13 9 12 14 14 17 13 14 16 13 14 13 10 10 9 8 7 7 5 5 3 3 5 6 6 7
2 1 7 7 7 3 5 10 18 21 16 12 5 4 20 12 14 10 10 11 12 14 15 13 13 13 14 13 13 9 8 9 8 7 7 6 6 6 6 6 6 7 7 6
3 2 8 7 1 6 6 12 21 10 9 7 18 21 19 16 14 12 13 13 15 15 13 11 12 13 12 12 8 7 9 8 8 6 6 6 7 6 6 6 6 6 7 6
5 7 7 4 6 1 3 11 12 14 16 19 19 18 18 17 12 11 12 12 12 14 14 11 11 11 11 5 8 9 8 6 6 6 6 5 6 5 5 6 5 4 5 5
5 3 12 6 9 6 8 9 12 18 20 21 21 18 18 15 13 11 13 12 12 14 12 11 10 10 8 9 7 8 6 6 5 6 6 6 4 4 4 4 4 4 5 5
6 6 7 4 17 6 6 19 17 16 16 20 21 19 17 16 15 13 13 12 12 13 11 11 10 10 8 7 7 6 6 5 5 4 5 5 6 4 4 4 4 3 3 5
1 4 2 3 14 6 14 19 18 21 17 15 17 18 18 14 14 15 14 13 13 13 12 10 10 9 7 5 5 5 5 4 4 4 4 4 4 4 10 8 8 8 6 5
4 5 5 5 9 7 9 18 17 19 17 19 16 18 19 17 13 18 15 14 13 13 11 10 11 10 5 5 5 5 5 4 3 5 4 4 4 5 4 4 5 6 8 11
6 4 6 7 1 7 14 14 18 18 17 18 19 19 18 17 16 15 13 14 14 12 10 9 10 7 3 4 4 4 5 5 3 3 3 4 4 3 3 3 3 4 7 11
10 5 8 16 14 10 16 18 21 19 18 16 17 18 18 17 15 14 14 14 13 11 8 7 5 4 3 4 5 5 4 3 2 1 2 4 3 3 3 3 3 3 4 7
16 16 11 20 22 17 17 19 22 17 17 15 17 17 17 17 15 13 11 9 10 7 7 6 5 3 5 5 5 4 4 5 4 2 3 4 3 3 4 5 5 4 4 4
7 14 16 11 14 16 17 15 16 18 16 16 17 16 17 16 15 13 11 10 10 8 6 4 1 5 5 5 4 3 3 3 5 4 5 5 4 4 4 4 4 4 4 5
10 12 14 16 15 18 18 18 17 17 15 16 16 15 14 12 12 11 10 10 9 8 5 3 3 5 5 5 4 1 4 4 5 5 5 5 4 4 4 4 4 4 4 5
17 18 20 14 16 17 18 18 18 16 15 14 14 13 13 12 11 9 9 8 7 5 2 1 7 6 3 6 3 5 5 5 5 5 5 5 5 4 4 4 4 5 4 5
20 19 18 19 17 18 18 15 16 15 13 13 14 12 12 11 10 9 8 6 2 2 1 3 3 4 4 5 8 5 6 6 6 5 5 5 5 4 4 5 5 5 4 5
13 16 17 16 12 13 14 13 13 12 13 14 13 11 11 10 9 10 9 6 4 4 1 3 3 2 4 4 6 5 6 6 5 5 5 4 5 5 4 5 4 4 5 5
10 11 12 12 11 11 8 12 12 12 13 13 13 12 12 10 9 7 5 5 2 4 3 1 2 4 3 6 5 6 6 6 5 5 5 4 4 4 4 4 4 4 5 5
10 10 12 12 13 13 14 14 13 13 13 12 12 11 9 6 6 8 6 3 3 5 3 1 3 3 6 5 6 6 6 6 6 5 5 4 4 4 4 4 4 4 5 5
11 10 11 11 12 12 11 9 10 11 11 11 10 10 11 7 4 3 5 6 7 5 3 3 4 7 7 5 5 5 5 6 5 4 5 6 4 4 4 4 4 4 4 5
11 11 11 10 9 7 10 11 12 11 11 10 10 8 9 4 5 4 5 4 6 5 4 5 9 9 5 5 5 5 5 5 4 4 3 3 2 5 4 3 3 2 4 4
11 8 7 8 7 8 8 9 8 7 8 7 6 6 5 6 6 6 4 6 5 5 4 4 5 6 5 5 5 5 5 5 5 3 5 4 4 3 4 5 4 3 5 5
8 8 7 8 8 8 8 9 9 8 8 8 8 6 8 7 6 7 7 5 5 4 4 4 4 5 5 5 5 5 4 5 4 3 4 3 3 3 3 4 4 3 4 5
Wind_Direction
273 206 179 201 233 164 158 168 147 264 6 354 81 68 80 93 92 82 74 84 87 87 98 105 112 118 113 117 123 122 115 105 104 99 89 85 81 72 64 47 36 37 50 35
327 273 194 208 231 204 153 176 127 102 74 64 92 97 91 87 91 89 90 90 92 95 98 92 97 110 107 105 94 96 97 98 91 82 85 80 75 75 68 56 39 34 19 18
288 345 300 309 241 195 179 187 145 110 129 97 59 69 71 89 87 85 84 91 96 91 89 87 92 99 95 91 85 77 77 82 89 89 85 80 76 64 55 42 36 31 16 9
253 4 126 233 352 205 143 135 123 120 115 125 119 94 65 30 100 89 72 61 74 80 78 76 76 79 87 83 95 88 76 78 73 86 86 85 73 62 46 33 31 4 337 329
101 127 288 11 14 336 143 48 119 134 138 138 120 98 61 75 89 88 101 83 68 79 75 68 62 66 73 68 74 79 76 73 79 86 81 77 71 59 41 35 1 347 351 6
29 48 211 241 267 16 65 151 128 138 162 164 165 118 164 164 106 91 76 91 90 80 77 70 63 66 68 63 66 70 70 71 70 72 68 57 47 34 13 11 22 13 9 38
111 36 280 247 260 145 145 210 168 165 191 211 146 143 140 127 94 89 100 93 84 76 79 80 73 67 68 70 67 71 73 65 57 44 54 41 39 37 48 44 38 32 30 10
92 233 271 197 176 175 215 143 158 163 169 117 116 117 122 117 119 120 105 93 87 88 80 76 78 81 70 66 67 70 73 66 65 52 56 63 78 52 47 52 47 31 20 8
191 232 4 269 192 310 143 153 156 136 124 122 121 123 124 127 133 122 107 97 94 92 84 71 73 77 81 78 75 64 64 58 60 51 46 52 72 63 48 49 51 32 31 8
320 10 333 351 22 18 89 82 113 130 132 134 133 134 133 128 131 120 113 107 100 93 89 85 77 77 69 58 67 68 67 59 49 48 36 36 56 72 66 52 49 36 25 10
293 325 342 4 358 332 119 109 111 117 133 134 133 136 137 134 130 119 113 108 104 101 96 86 82 78 74 67 69 69 65 51 43 35 36 44 54 45 71 62 70 55 16 7
216 281 237 302 349 283 126 129 128 126 128 128 131 135 131 125 118 118 117 113 102 99 99 99 95 88 86 77 69 81 77 59 52 48 49 52 51 26 35 95 65 41 6 14
299 313 261 328 13 337 121 122 124 125 132 125 117 114 112 116 115 117 113 113 110 112 110 111 110 108 102 83 95 96 99 95 73 71 73 60 43 43 41 15 31 13 6 5
308 310 125 125 302 108 127 124 112 105 106 110 112 108 110 109 109 109 112 112 111 112 111 110 114 111 101 83 76 65 36 23 62 41 80 75 65 68 51 37 2 357 353 360
348 353 125 113 97 122 117 117 108 108 110 106 107 110 110 109 106 106 105 105 103 101 100 105 97 83 47 44 44 27 18 8 8 94 125 111 80 58 43 36 13 22 355 351
316 132 120 127 135 127 125 118 113 112 110 113 109 104 102 101 98 97 97 104 110 109 104 99 85 37 13 17 9 351 320 270 223 138 133 97 58 44 37 37 35 19 5 346
160 121 115 113 130 120 115 111 110 112 112 107 106 108 105 104 97 92 86 83 84 83 84 88 17 354 346 307 314 315 327 44 107 84 84 98 92 69 67 60 45 24 359 349
103 110 102 119 119 108 104 100 103 104 110 115 110 108 103 100 107 106 106 102 103 102 111 27 356 316 318 313 324 170 109 100 90 85 88 77 69 65 68 66 47 37 352 345
88 97 95 87 95 103 99 104 107 111 112 113 107 104 105 106 111 116 116 114 114 107 266 301 301 310 327 325 44 91 95 79 79 72 89 83 64 59 61 52 43 29 6 9
93 89 87 92 85 87 90 81 81 86 92 102 107 111 115 122 130 128 118 110 129 195 208 308 48 47 13 17 73 87 82 78 86 84 85 78 72 62 50 48 45 27 9 11
98 103 105 106 103 95 100 108 116 122 125 122 124 125 123 119 121 122 115 120 169 163 81 44 50 10 21 53 80 86 83 77 78 92 94 88 81 60 52 46 37 28 19 14
130 122 118 120 128 134 121 123 118 117 114 113 115 122 119 120 112 97 90 130 159 155 137 62 355 2 30 71 82 80 80 78 74 84 83 80 81 74 59 41 28 27 20 5
120 125 125 125 117 114 110 109 114 117 120 125 123 126 128 128 135 133 127 141 118 107 90 16 323 48 82 90 97 94 89 85 76 74 76 78 75 76 74 54 20 29 24 10
125 120 117 115 114 111 112 115 115 109 112 115 118 127 129 123 82 60 101 103 103 94 71 351 23 99 103 97 98 100 101 97 92 81 74 73 68 64 54 54 35 20 16 17
128 127 125 126 127 122 122 118 113 113 112 113 116 116 115 107 120 148 116 107 101 82 55 28 51 64 93 98 102 102 98 94 94 88 76 79 59 67 63 47 39 12 15 13
131 131 128 120 125 129 125 125 125 125 121 117 111 116 113 119 124 121 118 107 99 92 75 54 50 59 83 87 87 94 101 97 92 85 91 82 65 45 45 36 32 24 21 15
120 117 121 121 125 129 134 139 136 139 136 135 129 136 134 132 127 126 123 119 109 96 78 66 61 61 75 89 88 91 94 97 96 93 93 75 52 23 35 26 28 17 13 13